Location: Prague
(50.0830°N, 14.4670°E)
Time: 12:02:07
(UTC+01:00)

STARLINK-1742 - Pass Details

Date: 22 September 2020
Orbit: 378 x 381 km, 53.0° (Epoch: 25 October)

Event Time Altitude Azimuth Distance (km) Brightness Sun altitude
Exits shadow 03:58:02 20° 66° (ENE) 952 5.6 -26.4°
Drops below altitude 10° 03:59:08 10° 68° (ENE) 1,397 6.6 -26.3°
Sets 04:01:11 0° 70° (ENE) 2,251 7.9 -26.0°
